Vertical_Velocity
15 0 2 3 -2 -6 -2 -2 -7 -0 -1 5 -0 -6 4 -3 -5 0 0 -0 -1 -1 -1 2 2 6 -1 2 -4 4 2 4 -0 1 1 1 1 1
-0 4 -1 -4 -2 -5 -7 -2 -1 -5 -2 1 0 -2 -1 -0 3 -3 2 -0 3 5 -1 0 1 5 -2 2 1 0 2 -0 -0 2 1 1 2 0
-8 -3 -3 -3 -3 -6 -6 -5 0 0 2 -1 -1 2 -1 -0 -1 -2 -1 -4 -4 -6 5 -3 3 2 0 2 3 2 1 4 2 1 3 0 1 -1
1 -1 1 -1 3 1 3 -5 1 -4 -5 2 1 1 -4 -1 3 -3 0 -0 1 5 -1 -1 -1 5 -4 3 -2 -3 -1 -4 4 3 2 -0 0 0
-4 2 -4 0 5 7 -5 -1 -5 0 -2 -1 2 -1 -4 -0 -2 4 -0 3 1 0 -1 4 -1 4 -4 7 0 -7 3 4 6 0 2 1 3 2
1 -5 3 -2 -1 3 -3 -3 -4 -1 -2 -2 -1 -0 -4 3 -2 -4 -3 0 -0 1 0 0 1 3 1 2 -1 7 0 2 3 3 3 1 2 2
2 -0 -3 2 5 3 -5 -7 6 1 -7 -9 -3 -7 3 -1 -3 -4 0 0 1 0 0 3 3 5 1 6 2 4 -3 -2 -1 3 3 1 1 0
-4 -5 5 1 -4 -6 1 3 -5 -6 -2 -2 -8 1 -0 -4 -2 0 2 -1 -0 -1 2 -0 4 3 -0 -2 -0 -1 2 -2 -2 -1 1 2 1 0
1 -0 -6 -5 -3 -1 -4 -0 3 -2 -4 1 -1 -7 1 -2 0 2 -1 -2 0 -1 -1 3 1 -1 -0 1 -2 3 3 -1 -1 1 1 2 1 -0
-3 -8 -4 -1 1 -2 -0 -4 -9 -6 -8 -2 4 -1 -1 -1 2 0 -2 -1 -1 0 -1 1 3 2 -2 -1 2 2 -2 -1 2 2 0 1 1 1
1 1 -3 -3 -2 -11 -4 -1 -3 2 2 1 -1 -1 -0 -3 -1 -1 -1 -1 1 2 2 3 2 -2 -3 2 1 -0 2 -0 -0 0 1 0 0 1
8 0 4 -10 3 -3 -2 -2 -3 -0 2 -1 -1 -1 -2 -3 -1 -1 -1 0 1 2 1 -2 -1 0 2 3 6 4 3 3 2 -1 -1 -1 2 4
-0 -5 -0 -3 1 -2 -2 -1 -1 0 -0 -0 -0 -1 -2 -1 -1 -1 -0 -1 -1 -0 1 -1 -0 0 1 -1 -3 -3 1 2 4 5 1 -3 1 0
-1 1 3 0 -3 -2 -1 -3 -1 1 -1 -1 -0 -1 -2 0 -1 -1 -1 -1 -0 -1 -1 -3 -3 -0 2 -0 0 -1 4 4 -0 -1 -0 -0 0 2
3 3 1 -1 0 -2 -1 -1 -0 2 -1 -1 -1 -2 -1 -0 -1 -1 -2 -3 -3 -2 -1 -2 -2 -0 -0 -1 -1 -0 0 -0 -1 0 0 -0 0 1
2 -2 1 2 1 -1 -1 -0 -1 1 -0 -0 -2 -1 0 -1 -2 -2 -1 -1 -2 -2 -1 -1 -0 -1 -1 0 -0 0 -0 -1 -0 -1 -2 -1 -0 0
-4 3 2 -0 1 0 -0 -0 -0 1 -2 0 -2 1 1 0 0 0 -1 -1 -1 -1 -0 -1 -1 -1 1 -1 -0 2 -0 1 1 -2 -1 -1 -3 -1
-4 4 0 1 0 -1 -0 -1 0 -1 -1 -1 -2 -0 0 0 -1 -1 -1 -1 0 0 -1 -1 -0 1 1 -1 -1 1 -1 0 1 0 0 0 -4 -2
7 1 3 1 -2 -1 0 0 -2 -1 2 -2 -0 -2 -1 -1 -2 0 0 -0 -1 -1 0 0 1 2 0 -1 -1 -2 2 2 -0 -1 1 3 0 -7
11 3 -1 -3 -1 -0 -0 1 -3 1 1 -2 -1 -1 -1 -0 -0 0 -0 0 0 0 0 -1 0 1 -1 -3 1 -5 3 1 -0 1 2 3 2 -4
7 1 -4 -2 -1 -1 -1 -0 -0 -0 3 0 0 0 -0 -1 -2 -0 -0 -0 0 -1 -1 1 2 -0 1 0 -2 -3 -1 0 2 1 1 1 0 -1
6 1 -1 -2 -1 1 -0 0 1 2 3 -0 0 0 0 0 -1 -0 -1 -0 -1 -0 -1 3 1 1 -0 0 -3 -1 -3 -3 -0 -2 -1 -2 -0 1
10 -2 -0 -3 -1 -1 1 0 3 4 1 1 1 0 1 -0 0 1 0 -1 -1 -2 -1 1 3 -0 -1 -1 -1 -3 -0 -1 -0 -0 -2 -2 1 -4
Height
5736 5733 5732 5733 5732 5731 5731 5730 5729 5728 5726 5725 5720 5716 5715 5713 5711 5708 5705 5701 5698 5697 5695 5694 5692 5691 5690 5689 5688 5689 5690 5691 5692 5693 5693 5694 5696 5698
5725 5723 5722 5722 5721 5720 5720 5719 5717 5716 5716 5714 5710 5706 5702 5700 5697 5694 5691 5688 5685 5683 5681 5679 5679 5679 5678 5677 5678 5679 5681 5682 5684 5685 5686 5688 5689 5691
5711 5710 5710 5710 5710 5709 5709 5707 5705 5703 5702 5700 5698 5693 5691 5688 5685 5682 5679 5678 5675 5671 5669 5668 5667 5667 5666 5666 5667 5670 5672 5673 5675 5677 5679 5681 5683 5685
5703 5701 5701 5701 5698 5697 5695 5694 5693 5691 5690 5688 5685 5684 5680 5677 5674 5671 5669 5666 5664 5662 5661 5658 5658 5657 5656 5656 5657 5659 5662 5664 5667 5669 5672 5673 5675 5678
5693 5693 5692 5690 5688 5686 5685 5683 5681 5681 5679 5679 5675 5671 5669 5665 5662 5660 5657 5655 5654 5653 5650 5649 5648 5647 5647 5648 5649 5650 5654 5658 5660 5662 5665 5666 5668 5670
5682 5681 5681 5680 5678 5677 5676 5674 5673 5669 5667 5665 5660 5658 5655 5652 5650 5649 5647 5644 5644 5643 5642 5641 5639 5638 5638 5640 5643 5645 5648 5650 5653 5654 5656 5658 5660 5663
5670 5670 5670 5669 5668 5666 5666 5661 5660 5658 5655 5652 5650 5646 5642 5641 5637 5636 5634 5634 5633 5632 5632 5631 5631 5630 5630 5632 5635 5637 5638 5641 5644 5646 5648 5650 5652 5654
5661 5660 5658 5659 5658 5655 5653 5651 5650 5646 5644 5640 5637 5634 5631 5629 5626 5624 5624 5624 5623 5622 5622 5622 5622 5621 5622 5624 5627 5629 5630 5633 5635 5637 5640 5642 5644 5646
5650 5651 5649 5648 5645 5643 5642 5640 5637 5635 5631 5627 5624 5621 5619 5617 5615 5615 5615 5614 5613 5613 5613 5613 5613 5614 5616 5618 5619 5621 5623 5624 5627 5629 5631 5634 5636 5638
5638 5635 5635 5635 5633 5632 5630 5629 5627 5624 5619 5617 5612 5610 5609 5606 5606 5606 5605 5605 5604 5604 5604 5604 5604 5607 5609 5611 5613 5614 5615 5617 5620 5621 5623 5625 5627 5629
5622 5622 5623 5622 5621 5621 5620 5617 5615 5613 5609 5607 5605 5602 5600 5598 5597 5597 5596 5596 5596 5595 5595 5595 5597 5599 5602 5605 5606 5607 5608 5609 5611 5613 5615 5617 5619 5621
5609 5608 5610 5609 5607 5607 5608 5608 5605 5603 5602 5600 5597 5595 5593 5590 5589 5588 5587 5587 5587 5587 5587 5589 5590 5593 5596 5598 5599 5600 5601 5602 5603 5605 5607 5609 5610 5612
5594 5595 5595 5596 5597 5597 5597 5596 5596 5595 5593 5591 5589 5587 5585 5583 5581 5580 5579 5579 5579 5580 5581 5583 5586 5588 5589 5591 5592 5593 5594 5595 5596 5597 5599 5601 5603 5604
5579 5581 5582 5583 5585 5585 5586 5586 5586 5585 5583 5582 5580 5578 5576 5576 5574 5573 5573 5573 5574 5575 5576 5577 5578 5580 5581 5583 5585 5586 5587 5588 5589 5591 5592 5593 5594 5595
5565 5568 5569 5570 5571 5573 5575 5576 5575 5575 5574 5572 5570 5569 5568 5568 5567 5567 5568 5568 5569 5569 5570 5571 5571 5573 5574 5576 5577 5579 5580 5581 5582 5584 5585 5585 5586 5587
5551 5554 5555 5558 5559 5561 5563 5564 5565 5565 5565 5563 5562 5561 5561 5561 5561 5561 5561 5562 5563 5563 5563 5564 5565 5566 5567 5569 5571 5572 5573 5574 5575 5576 5576 5577 5577 5577
5536 5540 5542 5545 5546 5548 5551 5553 5554 5554 5554 5554 5554 5553 5554 5554 5555 5555 5555 5556 5556 5556 5557 5557 5558 5559 5561 5562 5563 5564 5565 5565 5566 5566 5566 5566 5565 5565
5522 5526 5529 5531 5534 5536 5539 5541 5542 5543 5544 5545 5545 5545 5546 5548 5548 5548 5549 5549 5549 5550 5550 5551 5551 5553 5554 5555 5555 5555 5556 5556 5556 5556 5555 5554 5552 5551
5509 5512 5515 5518 5521 5524 5527 5529 5531 5532 5534 5535 5536 5537 5539 5540 5540 5541 5542 5542 5542 5543 5543 5543 5544 5545 5546 5545 5545 5544 5545 5545 5545 5544 5542 5541 5539 5538
5496 5499 5501 5504 5508 5512 5514 5517 5520 5522 5524 5525 5527 5529 5531 5532 5532 5533 5534 5534 5535 5535 5536 5536 5536 5536 5535 5535 5534 5533 5533 5533 5531 5530 5529 5528 5525 5523
5482 5485 5488 5492 5496 5499 5502 5505 5509 5511 5514 5516 5518 5520 5521 5523 5524 5525 5526 5526 5526 5526 5526 5526 5526 5525 5525 5524 5523 5522 5521 5519 5518 5518 5516 5514 5511 5508
5469 5473 5476 5480 5484 5488 5491 5494 5498 5501 5504 5506 5508 5511 5513 5514 5515 5515 5516 5516 5516 5515 5515 5515 5515 5514 5513 5512 5511 5510 5508 5507 5506 5504 5503 5500 5498 5494
5457 5460 5464 5468 5472 5476 5480 5484 5488 5491 5494 5496 5499 5501 5503 5504 5505 5505 5505 5504 5504 5505 5505 5505 5504 5503 5502 5501 5499 5498 5497 5495 5493 5492 5490 5488 5485 5480